Regional Weather Roundup
Issued by NWS Albany, NY

Home | Current Version | Previous Version | Text Only | Print | Product List | Glossary On
Versions: 1 2 3 4 5 6 7 8 9 10 11 12 13 14 15 16 17 18 19 20 21 22 23 24 25 26 27 28 29 30 31 32 33 34 35 36 37 38 39 40 41 42 43 44 45 46 47 48 49 50
000
ASUS41 KALY 060010
RWRALY

NEW YORK STATE HOURLY WEATHER ROUNDUP
NATIONAL WEATHER SERVICE ALBANY NY
700 PM EST THU MAR 05 2015

NOTE: "FAIR" INDICATES FEW OR NO CLOUDS BELOW 12,000 FEET WITH NO
SIGNIFICANT WEATHER AND/OR NO OBSTRUCTIONS TO VISIBILITY.

NYZ032-033-038>043-046>054-057>066-NYZ062>081-060100-
EAST


CITY           SKY/WX    TMP DP  RH WIND       PRES   REMARKS
ALBANY         CLOUDY    18   0  45 W18G25    30.28R WCI   2
GLENS FALLS    MOCLDY    15  -2  46 NE8       30.27R WCI   4
POUGHKEEPSIE   CLOUDY    22   7  52 NE5       30.25R WCI  16
NEWBURGH       CLOUDY    21   5  49 NW9       30.24R WCI  11
MONTGOMERY     CLOUDY    21   2  43 NW9       30.25R WCI  11
WHITE PLAINS   FLURRIES  20  14  77 NW7       30.21R WCI  11
ISLIP          CLOUDY    20  15  81 NW12      30.20S WCI   8
NEW YORK CITY  FLURRIES  23  14  68 N8        30.25R WCI  14
CENTRAL PARK   CLOUDY    21  14  74 VRB3      30.26R HAZE
$$

NYZ005>009-017-018-044>046-055-056-060100-
CENTRAL


CITY           SKY/WX    TMP DP  RH WIND       PRES   REMARKS
FULTON         MOCLDY     9   1  70 W3        30.34R
SYRACUSE       PTCLDY     7   1  76 W6        30.35R WCI  -3
ROME           PTCLDY    10  -3  55 W10       30.35R WCI  -4
ELMIRA         MOCLDY    13  -1  54 NW8       30.32R WCI   2
BINGHAMTON     MOCLDY     9   2  73 NW8       30.23R WCI  -3
MONTICELLO     CLOUDY    12   1  62 NW9       30.20R WCI   0
$$

NYZ026>034-041>043-060100-
NORTH


CITY           SKY/WX    TMP DP  RH WIND       PRES   REMARKS
WATERTOWN      CLEAR      1  -7  68 SW5       30.34R WCI  -9
FORT DRUM      NOT AVBL
MASSENA        CLEAR      6 -11  45 W3        30.35R
SARANAC LAKE   CLEAR      2 -13  49 CALM      30.14R
PLATTSBURGH    PTCLDY     7  -7  52 N9        30.30R WCI  -7
$$

NYZ001>004-010>016-019>021-060100-
WEST


CITY           SKY/WX    TMP DP  RH WIND       PRES   REMARKS
NIAGARA FALLS  PTCLDY     8  -3  61 W8        30.39R WCI  -4
BUFFALO        PTCLDY     9  -1  64 SW9       30.39R WCI  -4
DUNKIRK        CLEAR      8  -1  66 SW6       30.42R WCI  -2
JAMESTOWN      CLEAR      5  -4  66 W6        30.30R WCI  -6
WELLSVILLE     CLEAR      6  -6  57 NW10      30.24R WCI  -9
ROCHESTER      PTCLDY    12   3  67 W8        30.37R WCI   0
PENN YAN       PTCLDY    10  -3  55 W3        30.32R
$$

             KEY
       WCI = WIND CHILL INDEX
       VSB = VISIBILITY
       HX  = HEAT INDEX
$$



USA.gov is the U.S. government's official web portal to all federal, state and local government web resources and services.